This demonstration page uses our WeatherBlox Daily Observations layout. Learn more.

Left ArrowRight Arrow

Hourly Observations for May 8, 2019

Temp ( °F °C ) Dew Point ( °F °C ) Humidity (%) Winds ( mph kmh ) Pressure ( in mb ) Visibility ( mi km ) Precip ( " mm )
12:52 am 00:52 Cloudy 55 12.8 51 10.6 87 87 ESE 12 19 29.96 1015 7 11 0.02 0.51
1:52 am 01:52 Cloudy with Light Rain 55 12.8 51 10.6 87 87 ESE 10 17 29.93 1013 6 10 0.00 0.03
2:52 am 02:52 Cloudy with Light Rain 55 12.8 51 10.6 87 87 E 8 13 29.88 1012 5 8 0.01 0.25
3:52 am 03:52 Cloudy with Rain 55 12.8 51 10.6 87 87 ESE 8 13 29.86 1011 3 5 0.07 1.78
4:15 am 04:15 Cloudy with Heavy Rain 55 12.8 51 10.6 87 87 E 12 19 29.85 1011 2 2 0.09 2.29
4:25 am 04:25 Cloudy with Heavy Rain 54 12.2 51 10.6 90 90 E 6 9 29.84 1011 3 5 0.29 7.37
4:52 am 04:52 Cloudy with Rain 54 12.2 51 10.6 90 90 E 5 7 29.82 1010 5 8 0.38 9.65
5:52 am 05:52 Cloudy with Light Rain 54 12.2 50 10 87 87 VRB 3 6 29.78 1008 5 8 0.08 2.03
6:52 am 06:52 Cloudy with Rain 53 11.7 49 9.4 86 86 ENE 10 17 29.74 1007 5 8 0.12 3.05
7:52 am 07:52 Cloudy with Rain 53 11.7 49 9.4 86 86 ENE 13 20 29.70 1006 5 8 0.08 2.03
8:26 am 08:26 Cloudy with Rain 53 11.7 49 9.4 86 86 E 17 28 29.69 1006 3 5 0.09 2.29
8:52 am 08:52 Cloudy with Rain 53 11.7 49 9.4 86 86 E 15 24 29.68 1005 3 5 0.14 3.56
9:00 am 09:00 Cloudy with Heavy Rain 53 11.7 49 9.4 86 86 E 10 17 29.67 1005 2 3 0.03 0.76
9:02 am 09:02 Cloudy with Heavy Rain 52 11.1 49 9.4 89 89 E 9 15 29.68 1005 2 2 0.05 1.27
9:22 am 09:22 Cloudy with Rain 54 12.2 49 9.4 83 83 ENE 20 31 29.67 1005 3 4 0.21 5.33
9:34 am 09:34 Cloudy with Light Rain 53 11.7 48 8.9 83 83 NNE 14 22 29.65 1004 3 5 0.23 5.84
9:49 am 09:49 Cloudy with Light Rain 52 11 48 9 88 88 NNE 10 17 29.66 1004 4 6 0.24 6.10
9:52 am 09:52 Cloudy with Light Rain 52 11.1 48 8.9 86 86 NNE 15 24 29.64 1004 4 6 0.24 6.10
10:27 am 10:27 Cloudy with Light Rain 51 10.6 47 8.3 86 86 NNE 12 19 29.63 1003 3 5 0.02 0.51
10:52 am 10:52 Cloudy with Light Rain 50 10 47 8.3 89 89 N 12 19 29.62 1003 2 2 0.04 1.02
11:17 am 11:17 Cloudy with Light Rain 50 10 47 8.3 89 89 N 13 20 29.63 1003 3 4 0.03 0.76
11:52 am 11:52 Cloudy with Rain 50 10 47 8.3 89 89 NNW 13 20 29.62 1003 2 2 0.11 2.79
12:14 pm 12:14 Cloudy with Light Rain 50 10 47 8.3 89 89 NNW 16 26 29.61 1003 3 5 0.03 0.76
12:42 pm 12:42 Cloudy with Light Rain 50 10 47 8.3 89 89 NNW 16 26 29.60 1002 2 3 0.03 0.76
12:52 pm 12:52 Cloudy with Light Rain 50 10 47 8.3 89 89 NNW 15 24 29.59 1002 3 4 0.03 0.76
1:36 pm 13:36 Cloudy with Drizzle 52 11.1 48 8.9 86 86 NW 10 17 29.62 1003 5 8 0.01 0.25
1:52 pm 13:52 Cloudy with Drizzle 51 10.6 48 8.9 89 89 NW 14 22 29.60 1003 2 3 0.01 0.25
2:13 pm 14:13 Cloudy 53 11.7 49 9.4 86 86 NW 12 19 29.61 1003 7 11 0.00 0.03
2:49 pm 14:49 Cloudy 54 12 48 9 82 82 NW 10 17 29.62 1003 7 11 0.00 0.03
2:52 pm 14:52 Cloudy 54 12.2 49 9.4 83 83 WNW 10 17 29.62 1003 7 11 0.00 0.03
3:52 pm 15:52 Cloudy 54 12.2 48 8.9 80 80 NNW 9 15 29.64 1004 10 16 0.00 0.00
4:00 pm 16:00 Cloudy 54 12.2 48 8.9 80 80 NW 8 13 29.65 1004 10 16 0.00 0.00
4:52 pm 16:52 Cloudy 53 11.7 46 7.8 77 77 WNW 13 20 29.66 1005 10 16 0.00 0.00
5:29 pm 17:29 Cloudy 53 11.7 45 7.2 74 74 WNW 14 22 29.68 1005 10 16 0.00 0.00
5:52 pm 17:52 Cloudy 53 11.7 44 6.7 72 72 NW 16 26 29.68 1005 10 16 0.00 0.00
6:52 pm 18:52 Cloudy 52 11.1 43 6.1 72 72 NW 13 20 29.71 1006 10 16 0.00 0.00
7:52 pm 19:52 Cloudy 51 10.6 43 6.1 74 74 NW 17 28 29.73 1007 10 16 0.00 0.00
8:52 pm 20:52 Cloudy 49 9.4 43 6.1 80 80 NW 18 30 29.76 1008 10 16 0.00 0.00
8:55 pm 20:55 Cloudy 49 9.4 43 6.1 80 80 NW 20 31 29.77 1008 10 16 0.00 0.00
9:52 pm 21:52 Cloudy 48 8.9 42 5.6 80 80 NNW 16 26 29.78 1008 10 16 0.00 0.03
10:20 pm 22:20 Cloudy 48 8.9 41 5 77 77 NNW 24 39 29.79 1009 10 16 0.00 0.00
10:52 pm 22:52 Cloudy with Drizzle 47 8.3 41 5 80 80 NNW 20 31 29.78 1008 7 11 0.00 0.03
11:12 pm 23:12 Cloudy with Drizzle 46 7.8 41 5 83 83 NNW 25 41 29.80 1009 10 16 0.00 0.03
11:52 pm 23:52 Cloudy with Drizzle 44 6.7 39 3.9 83 83 NNW 23 37 29.81 1010 6 10 0.00 0.03

Powered by AerisWeather